Location: Chuathbaluk
(61.5726°N, 159.2454°W)
Time: 13:17:45
(UTC+00:00)

YUBILEINY - Visible Passes

Search period start: 16 January 2021 00:00
Search period end: 26 January 2021 00:00
Orbit: 1479 x 1508 km, 82.5° (Epoch: 16 January)

Date Brightness Start Highest point End Pass type
(mag) Time Alt. Az. Time Alt. Az. Time Alt. Az.
16 Jan ? 03:17:41 10° NNW 03:21:08 13° NW 03:24:34 10° WNW visible
16 Jan ? 10:50:24 22° NE 10:50:24 22° NE 10:55:21 10° NNE visible
16 Jan ? 12:46:19 51° NE 12:46:19 51° NE 12:52:51 10° NNE visible
16 Jan ? 14:42:13 52° NW 14:42:13 52° NW 14:50:02 10° NNE visible
16 Jan ? 16:38:07 23° NW 16:40:37 26° NNW 16:47:44 10° NNE visible
16 Jan ? 18:35:24 10° NW 18:41:25 19° N 18:47:27 10° NE visible
17 Jan ? 10:01:17 15° NE 10:01:17 15° NE 10:05:02 10° NNE visible
17 Jan ? 11:57:11 38° NE 11:57:11 38° NE 12:03:06 10° NNE visible
17 Jan ? 13:53:06 60° N 13:53:06 60° N 14:00:18 10° NNE visible
17 Jan ? 15:49:00 32° NW 15:49:54 32° NW 15:57:41 10° NNE visible
17 Jan ? 17:44:54 12° NW 17:50:16 20° N 17:56:26 10° NE visible
18 Jan ? 11:08:03 27° NE 11:08:03 27° NE 11:13:17 10° NNE visible
18 Jan ? 13:03:57 56° NNE 13:03:57 56° NNE 13:10:35 10° NNE visible
18 Jan ? 14:59:52 43° NW 14:59:52 43° NW 15:07:49 10° NNE visible
18 Jan ? 16:55:46 18° NW 16:59:12 22° NNW 17:05:51 10° NNE visible
19 Jan ? 10:18:55 19° NE 10:18:55 19° NE 10:23:16 10° NNE visible
19 Jan ? 12:14:49 44° NE 12:14:49 44° NE 12:20:53 10° NNE visible
19 Jan ? 14:10:43 53° NNW 14:10:43 53° NNW 14:18:02 10° NNE visible
19 Jan ? 16:06:38 26° NW 16:08:19 27° NW 16:15:38 10° NNE visible
19 Jan ? 18:02:59 10° NW 18:09:01 19° N 18:15:02 10° NE visible
20 Jan ? 09:29:45 13° NE 09:29:45 13° NE 09:32:43 10° NNE visible
20 Jan ? 11:25:39 33° NE 11:25:39 33° NE 11:31:07 10° NNE visible
20 Jan ? 13:21:34 57° N 13:21:34 57° N 13:28:19 10° NNE visible
20 Jan ? 15:17:28 35° NW 15:17:40 35° NW 15:25:39 10° NNE visible
20 Jan ? 17:13:22 14° NW 17:17:52 21° NNW 17:24:09 10° NNE visible
21 Jan ? 03:04:35 10° NW 03:06:15 11° NW 03:07:54 10° WNW visible
21 Jan ? 10:36:29 24° NE 10:36:29 24° NE 10:41:14 10° NNE visible
21 Jan ? 12:32:24 50° NNE 12:32:24 50° NNE 12:38:37 10° NNE visible
21 Jan ? 14:28:18 45° NW 14:28:18 45° NW 14:35:49 10° NNE visible
21 Jan ? 16:24:12 21° NW 16:26:52 24° NNW 16:33:42 10° NNE visible
21 Jan ? 18:21:39 10° NW 18:27:45 20° N 18:33:52 10° NE visible
22 Jan ? 09:47:19 17° NE 09:47:19 17° NE 09:51:07 10° NNE visible
22 Jan ? 11:43:13 39° NE 11:43:13 39° NE 11:48:53 10° NNE visible
22 Jan ? 13:39:07 54° NNW 13:39:07 54° NNW 13:46:04 10° NNE visible
22 Jan ? 15:35:01 29° NW 15:36:02 29° NW 15:43:33 10° NNE visible
22 Jan ? 17:30:55 11° NW 17:36:36 20° N 17:42:40 10° NE visible
23 Jan ? 08:58:08 12° NE 08:58:08 12° NE 09:00:11 10° NNE visible
23 Jan ? 10:54:02 30° NE 10:54:02 30° NE 10:59:06 10° NNE visible
23 Jan ? 12:49:56 54° NNE 12:49:56 54° NNE 12:56:21 10° NNE visible
23 Jan ? 14:45:50 38° NW 14:45:50 38° NW 14:53:37 10° NNE visible
23 Jan ? 16:41:44 17° NW 16:45:29 21° NNW 16:51:55 10° NNE visible
24 Jan ? 10:04:50 22° NE 10:04:50 22° NE 10:09:11 10° NNE visible
24 Jan ? 12:00:44 46° NNE 12:00:44 46° NNE 12:06:38 10° NNE visible
24 Jan ? 13:56:38 47° NNW 13:56:38 47° NNW 14:03:49 10° NNE visible
24 Jan ? 15:52:32 23° NW 15:54:31 25° NNW 16:01:34 10° NNE visible
24 Jan ? 17:49:18 10° NW 17:55:21 19° N 18:01:25 10° NE visible
25 Jan ? 09:15:38 15° NE 09:15:38 15° NE 09:18:56 10° NNE visible
25 Jan ? 11:11:32 36° NE 11:11:32 36° NE 11:16:54 10° NNE visible
25 Jan ? 13:07:26 53° N 13:07:26 53° N 13:14:04 10° NNE visible
25 Jan ? 15:03:20 31° NW 15:03:46 31° NW 15:11:29 10° NNE visible
25 Jan ? 16:59:14 13° NW 17:04:12 20° N 17:10:20 10° NE visible
